Regional Weather Roundup
Issued by NWS

Home | Current Version | Previous Version | Graphics & Text | Print | Product List | Glossary Off
Versions: 1 2 3 4 5 6 7 8 9 10 11 12 13 14 15 16 17 18 19 20 21 22 23 24 25 26 27 28 29 30 31 32 33 34 35 36 37 38 39 40 41 42 43 44 45 46 47 48 49 50

000
ASUS43 KTOP 301159
RWRKS

WEATHER ROUNDUP FOR KANSAS
NATIONAL WEATHER SERVICE GOODLAND KS
700 AM CDT SAT JUL 30 2016

NOTE:  "FAIR" INDICATES FEW OR NO CLOUDS BELOW 12,000 FEET WITH NO
SIGNIFICANT WEATHER AND/OR OBSTRUCTIONS TO VISIBILITY.

KSZ001>006-013>018-027>032-041>047-301300-
NORTHWEST KANSAS

CITY           SKY/WX    TMP DP  RH WIND       PRES   REMARKS
GOODLAND       CLOUDY    61  59  93 S5        30.03S
6HR MIN TEMP:  59; 6HR MAX TEMP:  69;

HAYS           MOCLDY    70  63  78 SW7       30.02R
HILL CITY      CLEAR     67  65  93 CALM      29.99F
6HR MIN TEMP:  65; 6HR MAX TEMP:  70;

RUSSELL        CLOUDY    69  67  93 S7        29.99S
6HR MIN TEMP:  68; 6HR MAX TEMP:  71;

$$

KSZ061>065-074>080-084>089-301300-
SOUTHWEST KANSAS

CITY           SKY/WX    TMP DP  RH WIND       PRES   REMARKS
DODGE CITY     PTCLDY    69  66  90 S8        30.01F
6HR MIN TEMP:  68; 6HR MAX TEMP:  72; 6HR PCP:  0.01;

ELKHART          N/A     62  59  90 W5          N/A
GARDEN CITY    CLOUDY    68  65  90 S8        29.99F
6HR MIN TEMP:  67; 6HR MAX TEMP:  71;

GREAT BEND     CLOUDY    70  61  73 S14       30.01S THUNDER
LIBERAL        CLEAR     64  59  82 S7        30.03F
$$

KSZ066>073-081>083-090>101-301300-
SOUTHEAST KANSAS

CITY           SKY/WX    TMP DP  RH WIND       PRES   REMARKS
CHANUTE        CLEAR     68  67  96 CALM      30.00R FOG
6HR MIN TEMP:  67; 6HR MAX TEMP:  72;

COFFEYVILLE    CLEAR     69  68  96 CALM      29.99S
6HR MIN TEMP:  68; 6HR MAX TEMP:  72;

HUTCHINSON     PTCLDY    70  68  93 CALM      30.01R
6HR MIN TEMP:  69; 6HR MAX TEMP:  73;

NEWTON         PTCLDY    69  68  96 SE6       30.01S
PARSONS        FOG       68  67  96 CALM      30.01R VSB 1
6HR MIN TEMP:  68; 6HR MAX TEMP:  72;

WICHITA INTL   CLOUDY    73  69  87 CALM      30.00R
6HR MIN TEMP:  73; 6HR MAX TEMP:  75;

WICHITA JABRA  MOCLDY    69  69 100 CALM      30.00R
6HR MIN TEMP:  68; 6HR MAX TEMP:  72;

WINFIELD       CLOUDY    71  69  93 CALM      30.00R
6HR MIN TEMP:  71; 6HR MAX TEMP:  75;

$$

KSZ007>012-019>026-033>040-048>060-102>105-301300-
NORTHEAST KANSAS

CITY           SKY/WX    TMP DP  RH WIND       PRES   REMARKS
CONCORDIA      PTCLDY    66  64  93 E5        30.01S
6HR MIN TEMP:  64; 6HR MAX TEMP:  67;

EMPORIA        CLEAR     67  65  93 E3        30.00S
6HR MIN TEMP:  66; 6HR MAX TEMP:  71;

LAWRENCE       PTCLDY    63  62  97 CALM      30.01S
6HR MIN TEMP:  61; 6HR MAX TEMP:  67;

MANHATTAN      CLEAR     67  65  93 N3        30.00S
6HR MIN TEMP:  65; 6HR MAX TEMP:  70;

OLATHE IND     CLEAR     67  63  87 E3        30.02R
6HR MIN TEMP:  64; 6HR MAX TEMP:  70;

OLATHE EXE     PTCLDY    66  63  90 CALM      30.02R
6HR MIN TEMP:  65; 6HR MAX TEMP:  73;

SALINA         MOCLDY    71  68  90 SE5       29.99S
6HR MIN TEMP:  71; 6HR MAX TEMP:  75;

TOPEKA BILLARD PTCLDY    64  62  93 CALM      30.01R
6HR MIN TEMP:  63; 6HR MAX TEMP:  70;

TOPEKA FORBES  PTCLDY    67  63  87 CALM      30.01S
6HR MIN TEMP:  65; 6HR MAX TEMP:  70;

$$



USA.gov is the U.S. government's official web portal to all federal, state and local government web resources and services.